User: anonymous   Login
Location: Unspecified
(0.0000°N, 0.0000°E)
Time: 21:29:54
(UTC+00:00)
Language:

AUBIESAT-1 - Orbit

View from above orbital plane
View from above orbital plane
View from above satellite
View from above satellite

Ground track
Ground track

The orbit data is extracted from the following two-line orbital elements,

1 37854U 11061E   18343.90888379 +.00001473 +00000-0 +83656-4 0  9994
2 37854 101.7118 138.9714 0162167 272.1426 086.1224 15.05930613387822
Epoch (UTC): 09 December 2018 21:48:47
Eccentricity: 0.0162167
inclination: 101.7118°
perigee height: 436 km
apogee height: 661 km
right ascension of ascending node: 138.9714°
argument of perigee: 272.1426°
revolutions per day: 15.05930613
mean anomaly at epoch: 86.1224°
orbit number at epoch: 38782

The dashed part of the orbit path shows where the satellite is in the earth's shadow,  

DLR